Wind_Speed
12 11 9 9 9 9 9 10 11 13 14 13 13 13 13 12 10 8 8 8 9 10 10 10 11 10 10 11 11 11 12 11 11 11 10 9 8 8 8 8 8 8 8 8
12 11 11 11 10 9 10 10 11 13 12 12 12 12 11 10 8 8 6 7 8 9 9 10 9 9 9 9 9 9 9 10 10 10 9 7 6 6 6 7 6 6 7 7
12 13 13 11 10 10 10 10 11 12 12 11 11 10 10 10 8 6 5 5 6 8 9 9 8 8 8 8 9 8 8 9 9 8 7 6 5 5 5 5 5 5 5 5
14 14 12 11 11 11 11 11 10 10 11 11 10 10 10 9 7 4 3 3 5 6 7 7 7 7 7 8 8 9 8 8 7 7 6 5 4 4 3 4 3 3 4 5
15 14 13 12 11 11 11 11 10 10 9 9 10 9 9 8 5 3 2 1 3 4 5 6 6 7 8 8 8 8 8 7 6 6 6 5 4 3 3 2 3 3 4 5
17 16 14 13 12 11 11 11 10 9 9 8 9 8 8 6 4 2 1 1 3 3 4 5 5 7 8 7 7 7 7 7 6 6 6 5 5 4 3 2 3 3 4 5
17 16 15 14 13 12 11 10 8 9 8 9 9 8 7 5 3 2 0 1 2 2 3 4 5 6 7 7 7 6 6 6 6 6 6 5 4 4 3 2 2 3 4 5
18 16 16 15 14 13 12 10 8 8 8 9 10 8 6 5 3 2 1 1 1 1 2 4 6 6 6 7 6 6 6 6 6 6 5 4 4 3 2 2 2 3 5 6
19 18 18 17 16 15 13 11 11 9 8 8 8 8 7 5 5 4 3 2 2 2 3 4 6 6 6 6 6 6 6 6 6 6 5 4 4 3 2 2 3 4 6 8
22 20 20 19 18 16 14 13 12 10 8 7 8 9 8 6 5 4 4 4 4 3 3 5 6 6 6 6 6 6 6 6 6 6 5 5 4 4 4 4 4 6 7 9
25 23 21 20 19 17 16 15 13 12 10 8 8 9 10 8 7 6 6 5 4 4 4 6 6 7 7 7 7 7 7 7 7 7 6 6 5 5 5 5 6 7 9 10
25 23 22 22 21 20 18 16 14 12 12 11 9 11 12 10 9 8 7 7 6 6 5 6 6 7 8 8 8 8 8 8 8 8 7 7 7 7 6 7 8 9 10 12
27 26 23 22 21 21 19 17 15 14 14 13 10 12 13 12 11 10 9 9 8 7 7 7 7 7 8 8 8 8 8 9 9 9 9 9 9 9 9 10 10 11 12 13
28 28 24 21 19 20 20 18 17 16 14 13 12 13 15 14 13 11 11 10 10 9 8 8 8 8 8 8 9 9 10 10 11 11 11 11 11 11 11 12 13 14 14 15
29 28 26 25 24 23 21 20 18 17 15 15 14 14 15 15 15 13 12 11 11 10 10 10 10 10 10 11 11 11 12 13 13 13 13 13 13 14 14 14 15 16 17 18
28 27 26 25 25 24 23 21 20 18 16 16 15 15 16 16 15 14 13 12 12 12 12 12 12 12 12 13 13 14 14 15 15 15 15 15 16 16 16 17 17 18 19 20
27 27 27 26 26 26 24 22 20 19 18 17 16 16 18 17 16 15 15 14 14 14 14 14 14 14 14 15 16 16 16 16 17 17 17 17 18 18 18 19 20 20 21 22
27 27 27 26 26 26 22 22 21 20 20 19 17 18 19 19 18 17 16 15 15 15 15 16 16 16 16 17 18 18 18 18 19 19 19 19 20 20 20 21 21 22 22 23
26 26 26 25 25 23 22 22 21 20 20 20 19 20 20 20 19 18 17 17 17 16 16 17 17 18 18 19 19 20 20 20 21 21 21 21 22 22 23 23 23 24 24 25
24 25 26 25 25 23 23 22 21 20 20 20 20 21 21 20 19 20 19 18 18 18 18 18 19 19 19 20 20 21 21 22 22 23 22 22 23 24 24 25 25 26 26 27
24 24 24 24 24 24 24 22 21 20 20 20 20 21 21 21 21 22 21 20 19 20 20 20 20 21 21 21 21 22 22 24 24 24 24 24 25 25 26 26 27 27 28 29
23 24 24 23 23 24 23 21 21 21 21 21 21 21 21 21 22 22 22 22 21 21 21 22 22 22 23 23 23 23 24 25 25 25 25 26 26 27 27 28 28 29 30 30
24 24 23 24 24 24 23 23 22 21 21 22 22 22 22 23 23 24 24 23 23 22 22 23 23 23 23 24 25 26 26 26 26 26 27 27 28 28 29 29 30 31 31 32
23 23 24 24 24 24 24 23 22 22 21 22 23 23 23 23 24 25 25 25 25 24 25 25 25 26 26 26 27 27 27 27 27 27 28 29 29 30 30 31 31 32 32 33
23 23 23 23 22 22 22 23 22 22 22 23 23 23 23 24 24 25 25 27 27 27 28 28 27 27 27 27 28 28 28 28 28 29 30 29 30 31 31 32 32 33 34 35
23 23 23 23 23 23 23 22 23 23 24 24 24 23 23 24 25 25 26 27 27 28 28 29 28 28 28 28 29 30 30 30 30 30 30 30 31 32 33 33 34 35 36 37
Wind_Direction
273 270 265 261 268 274 284 296 303 305 309 308 310 313 313 306 295 284 270 252 245 236 230 228 222 221 219 220 219 221 220 222 225 234 240 246 253 258 265 273 279 281 283 287
262 259 259 263 269 279 289 298 304 306 310 313 316 318 317 309 301 288 270 244 230 224 221 219 214 209 214 216 216 214 214 217 222 229 237 243 253 256 260 266 274 282 287 291
248 246 256 261 269 278 286 294 300 305 311 313 320 326 325 316 313 303 282 242 226 220 213 210 207 208 214 214 212 208 210 215 219 225 231 237 248 256 261 264 273 283 291 299
239 244 250 257 266 272 277 286 295 303 312 318 324 329 329 324 314 308 285 246 216 209 207 204 206 208 208 210 206 205 202 209 219 224 225 229 234 243 253 257 266 285 302 315
234 240 246 253 261 266 268 280 288 296 303 310 318 324 328 329 324 309 286 229 190 196 196 197 204 204 198 199 200 201 208 212 214 211 209 208 216 225 238 250 265 286 307 320
231 238 244 248 256 265 269 276 285 291 299 306 310 314 319 326 335 331 269 188 182 192 197 193 195 189 190 194 197 198 199 200 198 198 200 204 217 225 232 243 263 284 309 321
233 238 245 248 254 262 265 273 295 303 307 299 300 303 305 305 318 320 296 184 185 188 191 188 183 178 181 182 184 184 185 187 188 190 192 201 212 219 223 245 280 304 316 321
231 237 244 247 252 259 261 261 263 273 286 292 297 298 293 285 289 294 268 231 217 218 203 194 183 175 175 178 187 186 185 188 187 186 191 198 202 208 218 252 292 309 317 321
232 237 243 245 250 252 254 255 255 267 282 297 296 296 286 274 273 272 264 248 228 237 223 208 199 194 192 192 191 192 196 196 196 199 204 204 204 215 242 277 299 312 319 323
231 236 241 243 246 246 250 254 253 257 272 285 293 298 288 274 268 261 259 248 227 224 221 211 203 209 210 207 205 202 203 205 206 207 210 215 222 237 258 284 300 311 318 323
232 237 243 242 241 245 246 249 250 252 256 265 276 279 275 272 266 263 257 249 240 229 224 219 218 217 218 217 214 214 214 214 215 215 218 226 234 248 266 284 298 308 315 320
234 238 241 243 240 238 242 243 246 251 260 263 265 270 270 269 266 263 260 254 248 239 232 228 227 224 221 221 222 221 221 222 223 224 228 236 245 257 270 284 295 304 312 317
235 239 242 242 242 240 240 241 245 251 256 259 260 267 268 264 265 262 259 255 251 247 240 234 232 230 227 228 228 228 230 231 232 234 238 246 254 264 274 283 291 300 307 312
237 240 240 234 236 242 243 241 245 251 256 259 258 257 265 261 261 260 257 255 252 249 244 240 238 235 234 235 235 235 237 238 240 242 247 254 261 268 275 282 290 298 304 309
238 242 242 234 234 241 244 243 247 252 254 254 256 258 259 258 257 257 255 254 251 248 245 243 242 242 242 241 242 243 244 245 248 250 254 259 266 271 277 283 290 297 302 308
238 239 239 237 236 241 242 241 245 250 253 254 254 254 253 252 252 252 251 252 252 250 249 246 245 245 246 246 247 249 250 252 254 256 260 264 269 273 278 284 289 295 301 306
240 237 235 233 234 239 240 240 245 247 249 252 254 248 246 246 247 247 248 250 251 253 251 249 247 249 250 252 253 253 254 256 258 259 263 267 271 275 279 283 288 294 300 304
239 235 234 234 235 238 240 239 243 246 247 248 249 244 243 243 244 245 248 252 253 254 253 253 252 252 253 255 256 256 257 259 261 263 266 270 273 276 279 284 289 294 298 302
231 230 232 232 235 238 239 239 241 244 245 247 247 242 241 242 243 245 247 251 252 254 255 256 255 255 256 257 257 257 258 260 263 266 269 272 276 278 281 285 290 294 297 301
230 229 228 228 232 237 238 237 239 242 245 244 245 242 239 240 242 244 246 250 251 253 257 258 257 257 258 258 259 259 261 263 265 267 271 276 279 281 284 287 291 294 296 300
229 228 226 225 229 234 234 233 236 238 240 240 241 241 240 242 244 246 248 251 253 254 257 256 256 258 259 260 261 262 265 265 268 270 274 276 279 282 285 288 291 293 296 299
227 229 229 230 230 231 229 231 233 235 237 238 239 240 242 243 245 247 250 252 254 256 257 256 256 258 261 262 263 265 266 268 270 273 275 277 280 283 286 289 291 294 296 299
225 226 229 230 231 231 231 232 234 235 237 240 241 242 244 245 246 248 250 252 255 257 258 259 259 259 261 262 263 264 266 269 272 275 277 280 282 284 287 289 292 295 297 299
227 228 229 230 233 235 233 234 235 236 239 242 244 245 246 247 247 248 249 251 254 257 259 261 262 260 262 263 264 265 267 270 273 276 278 281 283 286 288 290 292 294 297 299
225 225 227 231 231 230 231 233 235 238 242 244 245 247 248 248 247 247 248 251 253 257 258 260 261 261 262 264 265 268 270 272 274 276 278 281 284 286 288 290 292 294 296 298
224 224 227 228 229 231 234 237 241 245 245 246 248 249 251 249 248 247 249 253 255 256 258 260 261 263 265 266 267 269 270 271 274 276 279 281 284 287 288 290 292 293 295 296
Height
5873 5874 5874 5874 5874 5874 5873 5873 5871 5869 5866 5864 5862 5859 5857 5854 5853 5852 5852 5851 5851 5851 5851 5852 5853 5854 5855 5857 5859 5861 5863 5864 5866 5868 5869 5869 5870 5870 5870 5871 5870 5870 5870 5870
5870 5871 5871 5870 5871 5871 5870 5870 5869 5866 5864 5862 5859 5857 5854 5852 5850 5849 5848 5849 5849 5849 5850 5850 5851 5853 5854 5856 5858 5859 5861 5862 5864 5866 5867 5867 5868 5868 5868 5868 5868 5868 5868 5868
5867 5869 5867 5868 5868 5868 5868 5868 5866 5864 5862 5860 5858 5856 5853 5850 5848 5847 5846 5846 5847 5848 5848 5849 5850 5852 5853 5854 5856 5858 5860 5861 5863 5864 5865 5866 5866 5866 5867 5867 5867 5867 5866 5866
5863 5864 5864 5865 5866 5866 5866 5865 5864 5862 5860 5859 5857 5855 5852 5849 5847 5846 5845 5845 5846 5847 5847 5848 5849 5851 5852 5854 5855 5857 5859 5860 5862 5862 5863 5864 5865 5865 5865 5865 5865 5865 5865 5864
5860 5861 5861 5862 5863 5863 5863 5862 5861 5860 5859 5858 5856 5854 5853 5849 5847 5846 5845 5845 5845 5846 5847 5848 5849 5850 5851 5853 5855 5856 5858 5859 5860 5861 5862 5863 5864 5864 5864 5864 5864 5864 5864 5863
5856 5857 5858 5859 5860 5860 5860 5860 5859 5858 5857 5857 5855 5853 5852 5849 5847 5846 5846 5845 5846 5846 5847 5847 5848 5849 5851 5852 5854 5855 5857 5858 5859 5860 5861 5862 5862 5863 5863 5863 5863 5862 5862 5861
5853 5854 5855 5856 5857 5857 5858 5858 5859 5858 5858 5857 5854 5852 5851 5849 5847 5847 5846 5846 5846 5846 5847 5847 5848 5849 5851 5852 5853 5855 5856 5857 5858 5859 5860 5861 5861 5862 5862 5862 5861 5861 5861 5860
5850 5853 5852 5853 5854 5854 5854 5856 5857 5857 5857 5855 5852 5850 5850 5848 5847 5846 5846 5846 5846 5847 5847 5848 5849 5850 5851 5852 5853 5854 5855 5856 5857 5858 5859 5859 5860 5860 5860 5860 5860 5860 5859 5858
5847 5849 5849 5849 5850 5851 5851 5852 5853 5853 5853 5852 5851 5849 5848 5847 5846 5846 5846 5846 5846 5847 5847 5848 5849 5850 5851 5852 5853 5854 5855 5856 5856 5857 5858 5858 5859 5859 5859 5859 5859 5858 5857 5856
5842 5844 5845 5845 5846 5847 5848 5849 5849 5850 5850 5851 5850 5848 5847 5845 5845 5845 5845 5845 5846 5846 5847 5847 5848 5849 5850 5851 5852 5853 5854 5855 5856 5856 5857 5858 5858 5858 5858 5858 5857 5856 5855 5854
5836 5839 5840 5841 5842 5844 5845 5845 5845 5847 5847 5848 5849 5849 5844 5844 5843 5843 5844 5844 5844 5845 5846 5846 5847 5848 5849 5850 5851 5852 5853 5854 5855 5855 5856 5856 5857 5857 5856 5856 5855 5854 5853 5851
5830 5833 5835 5837 5837 5838 5840 5841 5842 5843 5844 5844 5845 5847 5841 5841 5841 5841 5842 5842 5843 5843 5844 5845 5846 5847 5848 5849 5850 5851 5852 5853 5853 5854 5854 5855 5855 5855 5854 5853 5852 5851 5850 5848
5825 5827 5830 5832 5834 5835 5835 5836 5837 5839 5839 5840 5842 5844 5838 5838 5839 5839 5839 5840 5840 5841 5842 5843 5844 5845 5846 5847 5848 5849 5850 5851 5851 5852 5852 5852 5852 5852 5851 5851 5849 5848 5847 5845
5818 5821 5825 5828 5829 5830 5831 5832 5833 5834 5835 5836 5837 5837 5835 5835 5835 5836 5836 5837 5838 5838 5839 5840 5841 5842 5843 5845 5846 5847 5848 5849 5849 5849 5849 5850 5849 5849 5848 5847 5846 5845 5843 5841
5811 5814 5817 5820 5822 5824 5826 5827 5828 5829 5830 5831 5833 5833 5832 5831 5832 5832 5833 5834 5835 5836 5837 5838 5839 5840 5841 5842 5843 5844 5845 5846 5846 5846 5846 5846 5846 5846 5845 5844 5842 5841 5839 5837
5804 5808 5811 5813 5816 5817 5819 5821 5823 5824 5825 5826 5827 5828 5827 5827 5828 5828 5830 5830 5831 5832 5834 5835 5836 5837 5838 5839 5840 5841 5842 5843 5843 5843 5843 5843 5842 5841 5841 5839 5838 5836 5834 5832
5798 5801 5804 5807 5810 5811 5813 5816 5817 5819 5820 5821 5822 5823 5822 5823 5823 5824 5826 5827 5828 5829 5830 5831 5832 5833 5834 5835 5836 5837 5838 5838 5839 5839 5839 5838 5838 5837 5836 5835 5833 5831 5829 5827
5791 5794 5797 5800 5804 5805 5811 5810 5812 5813 5814 5815 5816 5817 5817 5818 5819 5820 5821 5822 5824 5825 5826 5827 5828 5829 5830 5831 5832 5833 5833 5834 5834 5834 5834 5834 5833 5832 5831 5829 5827 5826 5823 5821
5784 5788 5791 5794 5797 5800 5803 5804 5805 5807 5808 5809 5810 5811 5812 5813 5815 5816 5817 5818 5819 5820 5821 5822 5823 5824 5825 5826 5827 5828 5829 5829 5829 5829 5829 5828 5827 5826 5825 5823 5822 5819 5817 5815
5778 5781 5784 5787 5791 5794 5797 5798 5799 5802 5803 5803 5804 5806 5807 5809 5811 5812 5812 5813 5814 5815 5816 5817 5818 5819 5820 5821 5822 5823 5823 5823 5823 5823 5823 5822 5821 5820 5819 5817 5815 5813 5811 5808
5772 5774 5777 5780 5784 5787 5789 5791 5794 5797 5798 5797 5798 5800 5801 5803 5805 5806 5807 5808 5809 5810 5811 5812 5813 5814 5815 5816 5816 5817 5817 5817 5817 5817 5816 5816 5815 5814 5812 5810 5808 5806 5803 5801
5766 5769 5772 5775 5778 5782 5782 5784 5787 5789 5790 5791 5792 5794 5796 5797 5798 5799 5801 5802 5803 5804 5805 5806 5807 5808 5809 5810 5810 5811 5811 5811 5810 5810 5810 5809 5808 5806 5805 5803 5801 5798 5796 5793
5760 5763 5765 5769 5772 5773 5775 5777 5779 5781 5783 5785 5786 5788 5790 5791 5792 5793 5795 5796 5797 5799 5800 5800 5801 5802 5803 5803 5804 5804 5804 5804 5803 5803 5802 5802 5800 5799 5797 5795 5793 5790 5787 5785
5754 5756 5759 5762 5764 5766 5768 5771 5773 5775 5777 5779 5780 5782 5783 5785 5786 5787 5788 5790 5791 5792 5793 5794 5795 5796 5796 5797 5797 5797 5796 5796 5796 5796 5795 5794 5792 5791 5789 5787 5784 5782 5779 5776
5747 5750 5753 5756 5758 5760 5762 5764 5767 5769 5771 5772 5774 5775 5777 5778 5779 5780 5782 5783 5784 5785 5786 5787 5788 5788 5789 5789 5790 5790 5789 5789 5789 5788 5787 5785 5784 5783 5781 5778 5776 5773 5770 5767
5741 5744 5747 5750 5752 5755 5757 5759 5761 5763 5764 5766 5767 5769 5770 5771 5772 5774 5775 5776 5777 5778 5779 5780 5781 5781 5781 5782 5782 5782 5782 5781 5781 5780 5778 5777 5776 5774 5772 5769 5767 5764 5761 5757